Location: Arrakis Observatory
(44.1122°N, 95.7153°W)
Time: 14:22:45
(UTC-05:00)

Iridium 35 - Visible Passes

Search period start: 30 June 2016 00:00
Search period end: 10 July 2016 00:00
Orbit: 776 x 779 km, 86.4° (Epoch: 30 June)

Date Brightness Start Highest point End Pass type
(mag) Time Alt. Az. Time Alt. Az. Time Alt. Az.
30 Jun 5.8 00:53:29 10° N 00:58:24 40° E 00:59:44 34° ESE visible
30 Jun 6.4 02:34:40 10° NNW 02:38:52 25° W 02:40:11 23° WSW visible
01 Jul 6.6 00:20:30 10° NNE 00:24:38 23° ENE 00:26:13 20° ESE visible
01 Jul 5.6 02:00:37 10° NNW 02:05:33 44° W 02:06:41 38° WSW visible
01 Jul 7.2 23:48:16 10° NE 23:50:44 13° ENE 23:52:44 11° E visible
02 Jul 5.0 01:26:53 10° N 01:32:08 80° W 01:33:12 57° SSW visible
03 Jul 5.3 00:53:25 10° N 00:58:34 57° E 00:59:42 47° SE visible
03 Jul 6.8 02:35:20 10° NW 02:38:46 18° WNW 02:40:10 16° W visible
04 Jul 6.1 00:20:12 10° NNE 00:24:54 32° E 00:26:13 28° ESE visible
04 Jul 6.1 02:00:59 10° NNW 02:05:32 31° W 02:06:41 28° WSW visible
04 Jul 6.8 23:47:26 10° NNE 23:51:04 19° ENE 23:52:45 16° E visible
05 Jul 5.3 01:27:04 10° NNW 01:32:10 56° W 01:33:13 47° SW visible
05 Jul 7.3 23:16:19 10° ENE 23:17:06 10° ENE 23:17:53 10° ENE visible
06 Jul 4.9 00:53:26 10° N 00:58:42 82° E 00:59:44 58° SSE visible
06 Jul 7.2 02:36:29 10° NW 02:38:38 13° WNW 02:40:12 11° W visible
07 Jul 5.6 00:20:04 10° N 00:25:05 45° E 00:26:16 39° ESE visible
07 Jul 6.6 02:01:29 10° NNW 02:05:28 22° W 02:06:44 20° W visible
07 Jul 6.3 23:46:59 10° NNE 23:51:21 26° ENE 23:52:49 23° ESE visible
08 Jul 5.8 01:27:21 10° NNW 01:32:11 39° W 01:33:17 35° WSW visible
08 Jul 7.0 23:14:31 10° NE 23:17:28 15° ENE 23:19:22 13° E visible
09 Jul 5.1 00:53:33 10° N 00:58:46 71° W 00:59:50 55° SSW visible
